Stations météo

réclame
Mon MeteoGroup
Mühldorf, Allemagne (10875): Température de l'air & dewpoint: 10.07.2019 04:00:00 - 16.07.2019 04:00:00 (CEST)Mühldorf, Allemagne (10875): Température de l'air 5cm & Température de l'air -5cm: 10.07.2019 04:00:00 - 16.07.2019 04:00:00 (CEST)Mühldorf, Allemagne (10875): Température de l'air -20cm & Température de l'air -100cm: 10.07.2019 04:00:00 - 16.07.2019 04:00:00 (CEST)Mühldorf, Allemagne (10875): Vitesse du vent & gusts: 10.07.2019 04:00:00 - 16.07.2019 04:00:00 (CEST)Mühldorf, Allemagne (10875): Direction du vent: 10.07.2019 04:00:00 - 16.07.2019 04:00:00 (CEST)Mühldorf, Allemagne (10875): reduced air pressure: 10.07.2019 04:00:00 - 16.07.2019 04:00:00 (CEST)Mühldorf, Allemagne (10875): visibility: 10.07.2019 04:00:00 - 16.07.2019 04:00:00 (CEST)Mühldorf, Allemagne (10875): Ensoleillement: 10.07.2019 04:00:00 - 16.07.2019 04:00:00 (CEST)Mühldorf, Allemagne (10875): Quantités de précipitations: 10.07.2019 04:00:00 - 16.07.2019 04:00:00 (CEST)
Date & Time tt [°C] td [°C] tt 5cm [°C] tt -5cm [°C] tt -20cm [°C] tt -100cm [°C] ff [km/h] ff [knt] fx [km/h] fx [knt] dd ppp [hPa] vv [km] sd [min] rr [mm]
16.07.2019 04:00:00 11,3 11,2 8,1 13,5 19,7 18,1 4 2 8 4 W 1016,6 8 0 0,0
16.07.2019 03:00:00 11,1 10,9 9,3 14,1 19,9 18,1 8 4 10 6 W 1016,6 8 0 0,0
16.07.2019 02:00:00 11,2 10,8 9,4 14,9 20,1 18,1 5 3 9 5 W 1016,7 7 0 0,0
16.07.2019 01:00:00 11,7 11,0 10,1 15,7 20,3 18,1 3 1 5 3 N 1016,5 15 0 0,0
16.07.2019 00:00:00 12,8 11,8 11,3 16,6 20,5 18,1 7 4 8 5 W 1016,1 16 0 0,0
15.07.2019 23:00:00 13,6 12,5 12,6 17,8 20,5 18,1 3 2 5 3 WNW 1015,8 17 0 0,0
15.07.2019 22:00:00 15,1 13,1 13,0 19,2 20,6 18,1 5 3 5 3 NW 1015,4 24 0 0,0
15.07.2019 21:00:00 18,2 13,3 16,0 21,0 20,5 18,1 2 1 9 5 NNE 1014,3 37 23 0,0
15.07.2019 20:00:00 21,7 11,7 22,2 22,8 20,3 18,1 7 4 16 9 NE 1013,5 45 46 0,0
15.07.2019 19:00:00 22,1 11,3 22,3 24,9 20,1 18,1 10 5 17 9 ENE 1013,2 30 56 0,0
15.07.2019 18:00:00 23,5 11,1 25,3 25,8 19,7 18,1 9 5 30 16 E 1013,0 44 55 0,0
15.07.2019 17:00:00 23,5 9,7 25,8 26,8 19,3 18,1 7 4 23 13 E 1013,1 45 48 0,0
15.07.2019 16:00:00 23,5 10,1 27,8 27,9 19,0 18,2 7 4 19 10 ENE 1013,2 25 57 0,0
15.07.2019 15:00:00 22,4 9,4 26,7 27,5 18,6 18,2 8 5 20 11 E 1013,6 26 57 0,0
15.07.2019 14:00:00 21,9 10,5 25,9 25,7 18,3 18,2 14 7 27 15 NE 1014,1 59 43 0,0
15.07.2019 13:00:00 21,1 11,0 24,6 25,2 18,0 18,2 14 8 26 14 E 1014,5 31 54 0,0
15.07.2019 12:00:00 20,9 11,4 24,1 23,9 17,8 18,2 14 8 27 15 E 1014,3 37 56 0,0
15.07.2019 11:00:00 18,7 11,3 20,4 22,2 17,7 18,2 11 6 20 11 E 1014,9 32 58 0,0
15.07.2019 10:00:00 17,1 12,0 19,6 19,7 17,7 18,2 10 6 18 10 E 1015,4 34 60 0,0
15.07.2019 09:00:00 14,7 12,1 15,6 16,8 17,8 18,2 5 3 11 6 ESE 1015,7 11 53 0,0
15.07.2019 08:00:00 13,9 12,4 14,4 14,6 17,9 18,2 5 3 8 4 ESE 1015,5 12 57 0,0
15.07.2019 07:00:00 12,0 11,4 12,1 13,0 18,1 18,2 4 2 12 6 E 1015,5 7 25 0,0
15.07.2019 06:00:00 11,1 11,0 11,2 12,5 18,3 18,2 5 3 8 4 NE 1015,9 7 0 0,0
15.07.2019 05:00:00 9,5 9,2 8,1 12,3 18,5 18,2 3 2 9 5 W 1016,1 1,0 0 0,0
15.07.2019 04:00:00 10,0 10,0 8,9 12,8 18,7 18,2 4 2 6 3 ENE 1015,6 2,7 0 0,0
15.07.2019 03:00:00 9,9 9,8 8,8 13,2 18,9 18,3 0 0 6 4 N 1016,1 3,9 0 0,0
15.07.2019 02:00:00 10,9 10,9 9,2 13,9 19,1 18,3 3 2 6 3 ENE 1016,0 0,9 0 0,0
15.07.2019 01:00:00 11,6 11,5 9,3 14,7 19,2 18,3 0 0 5 3 N 1016,0 3,0 0 0,0
15.07.2019 00:00:00 12,7 12,0 10,7 15,6 19,3 18,3 3 2 9 5 ENE 1015,9 4,0 0 0,0
14.07.2019 23:00:00 14,2 13,1 12,9 16,6 19,3 18,3 6 4 11 6 E 1015,4 22 0 0,0
14.07.2019 22:00:00 14,2 13,7 14,2 17,7 19,4 18,3 5 3 5 3 ENE 1015,5 14 0 0,0
14.07.2019 21:00:00 15,4 14,5 15,4 18,6 19,3 18,3 3 1 5 3 NNW 1015,2 15 3 0,0
14.07.2019 20:00:00 16,2 14,7 16,2 19,1 19,3 18,3 1 1 9 5 NE 1014,7 37 1 0,0
14.07.2019 19:00:00 16,5 14,5 16,6 19,3 19,2 18,3 6 4 16 8 E 1014,6 27 0 1,2
14.07.2019 18:00:00 15,3 13,4 15,5 19,9 19,0 18,3 12 6 21 12 NNE 1015,0 4,3 0 8,7
14.07.2019 17:00:00 19,3 11,9 21,1 22,8 18,9 18,3 5 3 9 5 NNW 1014,4 57 11 0,0
14.07.2019 16:00:00 18,1 12,7 17,8 20,3 18,9 18,3 4 2 8 4 SSE 1014,5 47 0 0,4
14.07.2019 15:00:00 15,2 12,9 15,0 18,0 18,7 18,2 8 4 29 16 SW 1015,6 7 0 15,5
14.07.2019 14:00:00 14,5 11,8 14,2 21,5 18,5 18,2 24 13 39 21 W 1015,9 10 13 2,6
14.07.2019 13:00:00 19,4 12,8 24,0 21,8 18,4 18,2 6 4 15 8 NNW 1014,9 32 11 0,0
14.07.2019 12:00:00 17,7 13,0 20,8 20,4 18,3 18,2 5 3 14 8 N 1015,5 19 0 0,0
14.07.2019 11:00:00 16,8 12,7 18,7 19,5 18,3 18,2 8 5 15 8 NW 1015,8 23 2 0,0
14.07.2019 10:00:00 16,2 13,4 18,7 17,6 18,3 18,2 9 5 13 7 WNW 1016,1 15 0 0,0
14.07.2019 09:00:00 15,3 13,4 15,6 16,6 18,4 18,2 9 5 14 8 WNW 1016,2 11 0 0,0
14.07.2019 08:00:00 14,7 13,5 14,9 15,7 18,4 18,2 9 5 14 7 W 1016,0 9 0 0,0
14.07.2019 07:00:00 14,0 13,5 14,2 14,9 18,5 18,2 7 4 9 5 W 1016,3 7 0 0,0
14.07.2019 06:00:00 13,5 13,2 13,2 14,5 18,6 18,2 5 3 7 4 SW 1016,4 7 0 0,0
14.07.2019 05:00:00 13,2 12,9 12,7 14,4 18,7 18,2 4 2 9 5 WNW 1016,5 4,9 0 0,0
14.07.2019 04:00:00 13,1 12,7 11,8 14,6 18,9 18,2 5 3 8 5 WSW 1016,5 4,3 0 0,0
14.07.2019 03:00:00 13,3 12,9 12,9 14,5 19,0 18,2 6 3 9 5 WNW 1016,9 8 0 0,0
14.07.2019 02:00:00 13,7 13,0 12,0 15,1 19,1 18,2 3 2 10 5 W 1017,2 11 0 0,0
14.07.2019 01:00:00 13,9 13,2 13,6 15,4 19,2 18,2 6 4 10 5 W 1017,4 12 0 0,0
14.07.2019 00:00:00 14,0 13,2 13,6 15,5 19,2 18,3 8 4 16 9 W 1017,4 12 0 0,3
13.07.2019 23:00:00 13,7 13,1 13,4 15,7 19,3 18,3 5 3 10 6 W 1017,5 11 0 0,1
13.07.2019 22:00:00 13,9 12,9 13,6 16,0 19,4 18,3 6 3 12 6 W 1017,6 25 0 0,0
13.07.2019 21:00:00 14,2 12,3 13,6 16,6 19,4 18,3 7 4 16 9 WSW 1017,0 46 6 0,0
13.07.2019 20:00:00 14,5 12,5 14,1 17,1 19,4 18,3 12 7 22 12 W 1016,7 41 1 0,3
13.07.2019 19:00:00 15,0 11,8 14,2 18,2 19,4 18,3 20 11 32 17 WNW 1016,8 48 5 0,0
13.07.2019 18:00:00 14,6 13,3 14,8 18,0 19,3 18,3 12 6 41 22 W 1016,2 33 0 0,5
13.07.2019 17:00:00 16,4 13,4 16,6 19,3 19,3 18,3 25 13 37 20 WNW 1016,1 13 1 0,0
13.07.2019 16:00:00 17,1 13,6 19,2 19,9 19,3 18,3 18 10 29 16 W 1015,9 32 6 0,3
13.07.2019 15:00:00 13,9 12,3 14,0 18,5 19,3 18,3 22 12 48 26 W 1016,6 5 3 0,5
13.07.2019 14:00:00 14,9 12,3 14,9 18,2 19,3 18,3 27 15 41 22 W 1016,5 16 0 0,3
13.07.2019 13:00:00 16,2 13,1 17,3 17,6 19,3 18,3 21 12 39 21 W 1015,8 16 0 0,0
13.07.2019 12:00:00 15,7 13,6 15,6 17,2 19,4 18,3 20 11 36 19 W 1015,7 13 0 0,5
13.07.2019 11:00:00 14,6 12,5 14,3 16,7 19,5 18,3 24 13 39 21 WNW 1015,8 9 0 0,1
13.07.2019 10:00:00 15,4 12,6 15,8 16,6 19,6 18,3 22 12 35 19 W 1015,0 28 0 0,0
13.07.2019 09:00:00 14,2 12,4 13,8 15,7 19,7 18,3 19 11 32 17 W 1015,0 15 0 0,5
13.07.2019 08:00:00 14,6 12,2 14,6 15,4 19,9 18,3 22 12 32 17 W 1014,4 31 0 0,0
13.07.2019 07:00:00 14,3 12,2 14,0 15,2 20,0 18,3 20 11 35 19 W 1013,9 12 0 0,0
13.07.2019 06:00:00 14,3 12,5 13,9 15,2 20,2 18,3 20 11 32 17 W 1013,7 17 0 0,0
13.07.2019 05:00:00 14,3 12,6 13,6 15,5 20,4 18,3 22 12 31 17 W 1013,3 24 0 0,1
13.07.2019 04:00:00 13,8 12,7 13,4 15,7 20,5 18,3 13 7 22 12 W 1013,3 18 0 0,1
13.07.2019 03:00:00 13,9 12,7 13,3 16,0 20,7 18,3 10 6 23 12 W 1013,3 38 0 0,0
13.07.2019 02:00:00 14,3 13,5 14,0 16,6 20,8 18,3 5 3 13 7 SW 1013,0 27 0 0,0
13.07.2019 01:00:00 14,5 13,7 14,1 16,9 20,9 18,3 8 5 49 26 W 1013,2 20 0 3,6
13.07.2019 00:00:00 15,1 13,4 14,9 17,8 21,0 18,3 9 5 14 8 W 1012,7 33 0 0,0
12.07.2019 23:00:00 14,7 13,4 13,7 18,2 21,1 18,3 3 2 6 3 N 1012,0 44 0 0,0
12.07.2019 22:00:00 15,2 12,9 14,3 18,9 21,1 18,3 3 1 7 4 ENE 1012,0 63 0 0,0
12.07.2019 21:00:00 17,0 12,8 15,1 20,1 21,1 18,3 3 2 13 7 SW 1011,6 64 1 0,0
12.07.2019 20:00:00 19,2 11,9 19,1 21,3 21,1 18,3 13 7 27 14 W 1011,5 52 29 0,0
12.07.2019 19:00:00 19,7 11,3 19,8 22,6 21,0 18,3 20 11 29 16 W 1011,5 32 46 0,0
12.07.2019 18:00:00 19,7 13,6 22,9 22,8 21,0 18,3 6 3 14 7 W 1011,9 46 12 0,0
12.07.2019 17:00:00 18,0 14,1 20,2 21,8 20,9 18,3 9 5 32 17 W 1013,1 28 0 0,0
12.07.2019 16:00:00 18,8 13,0 19,2 23,4 20,7 18,3 21 12 44 24 W 1013,3 12 13 0,0
12.07.2019 15:00:00 18,8 13,6 21,0 22,7 20,6 18,3 27 14 60 33 W 1013,1 6 3 0,0
12.07.2019 14:00:00 20,3 12,1 21,8 24,0 20,4 18,3 41 22 56 30 W 1012,8 12 12 0,0
12.07.2019 13:00:00 22,1 12,9 25,4 24,7 20,2 18,3 21 12 32 18 W 1012,2 16 36 0,0
12.07.2019 12:00:00 22,0 12,8 25,6 23,5 20,1 18,3 16 9 35 19 W 1012,7 29 32 0,0
12.07.2019 11:00:00 20,2 13,2 25,0 23,3 20,0 18,3 11 6 22 12 WSW 1013,1 30 42 0,0
12.07.2019 10:00:00 18,7 13,5 21,2 21,7 20,1 18,3 7 4 14 7 WSW 1013,5 27 31 0,0
12.07.2019 09:00:00 17,3 13,4 20,0 19,8 20,2 18,3 5 3 9 5 WNW 1014,0 18 38 0,0
12.07.2019 08:00:00 15,2 13,4 17,0 17,0 20,3 18,3 3 2 7 4 W 1014,6 8 9 0,0
12.07.2019 07:00:00 13,5 13,2 14,1 15,8 20,4 18,3 0 0 4 2 N 1015,0 3,0 5 0,0
12.07.2019 06:00:00 12,6 12,4 11,9 15,7 20,6 18,4 4 2 5 3 NW 1015,1 1,7 0 0,0
12.07.2019 05:00:00 13,1 12,9 12,8 16,1 20,8 18,4 3 2 4 2 N 1014,8 2,5 0 0,0
12.07.2019 04:00:00 13,3 12,9 13,0 16,3 20,9 18,4 0 0 8 4 N 1014,8 4,8 0 0,0
12.07.2019 03:00:00 13,6 13,2 13,3 16,7 21,1 18,4 2 1 6 3 NW 1015,0 4,3 0 0,0
12.07.2019 02:00:00 13,9 13,4 13,9 16,9 21,3 18,4 5 3 10 5 W 1015,4 6 0 0,1
12.07.2019 01:00:00 13,7 13,2 13,8 17,1 21,4 18,4 9 5 16 9 WNW 1015,8 3,8 0 0,6
12.07.2019 00:00:00 14,3 13,0 13,9 17,7 21,6 18,4 11 6 18 10 W 1015,7 15 0 0,0
11.07.2019 23:00:00 14,3 13,5 14,1 18,2 21,7 18,4 8 4 16 9 W 1015,6 7 0 1,3
11.07.2019 22:00:00 14,7 14,2 14,7 19,1 21,8 18,4 8 4 11 6 WSW 1015,6 1,9 0 1,2
11.07.2019 21:00:00 14,8 13,9 14,7 19,8 21,9 18,4 4 2 7 4 W 1015,2 4,0 0 0,5
11.07.2019 20:00:00 15,0 13,9 15,3 20,5 21,9 18,4 5 3 17 9 NW 1015,1 9 0 0,9
11.07.2019 19:00:00 15,2 13,2 14,9 21,5 21,8 18,4 14 7 22 12 WNW 1015,1 12 0 0,6
11.07.2019 18:00:00 16,4 12,9 15,5 22,9 21,7 18,4 14 7 32 17 WNW 1014,8 12 0 0,3
11.07.2019 17:00:00 19,4 8,9 18,9 26,1 21,4 18,4 19 10 37 20 WNW 1013,8 20 0 0,0
11.07.2019 16:00:00 22,0 7,4 25,6 27,5 21,1 18,4 17 9 28 15 WSW 1013,0 21 0 0,0
11.07.2019 15:00:00 22,6 7,9 26,7 28,6 20,8 18,4 10 5 23 12 WNW 1013,1 23 7 0,0
11.07.2019 14:00:00 22,4 7,2 29,0 29,0 20,6 18,4 13 7 23 13 WSW 1013,4 17 37 0,0
11.07.2019 13:00:00 21,4 6,7 27,1 26,2 20,5 18,4 7 4 12 6 W 1014,1 24 5 0,0
11.07.2019 12:00:00 19,5 7,2 25,0 24,1 20,4 18,4 3 2 9 5 NNW 1014,8 45 0 0,0
11.07.2019 11:00:00 18,7 8,8 23,3 21,9 20,5 18,4 6 3 10 6 W 1015,3 25 2 0,0
11.07.2019 10:00:00 15,9 9,0 18,5 18,7 20,6 18,4 2 1 7 4 W 1015,9 31 0 0,0
11.07.2019 09:00:00 13,9 9,4 15,4 17,2 20,8 18,4 2 1 4 2 ESE 1016,4 34 0 0,0
11.07.2019 08:00:00 11,9 9,0 13,5 16,3 21,0 18,4 4 2 5 3 E 1016,6 25 0 0,0
11.07.2019 07:00:00 10,5 8,5 11,1 15,5 21,2 18,4 0 0 3 1 N 1016,7 20 0 0,0
11.07.2019 06:00:00 8,6 7,6 9,2 14,9 21,5 18,4 0 0 3 1 N 1017,4 14 0 0,0
11.07.2019 05:00:00 7,2 6,3 6,3 14,5 21,8 18,4 0 0 4 2 N 1017,5 21 0 0,0
11.07.2019 04:00:00 6,8 5,8 4,0 15,0 22,1 18,4 0 0 5 3 N 1017,8 18 0 0,0
11.07.2019 03:00:00 7,0 5,8 4,2 15,7 22,3 18,4 3 2 4 2 WNW 1018,3 15 0 0,0
11.07.2019 02:00:00 7,4 6,2 5,3 16,6 22,6 18,4 3 2 5 3 NW 1018,7 19 0 0,0
11.07.2019 01:00:00 8,6 7,3 5,9 17,6 22,8 18,4 3 1 4 2 NW 1018,6 34 0 0,0
11.07.2019 00:00:00 9,7 8,0 6,8 18,8 23,0 18,4 2 1 4 2 W 1018,5 35 0 0,0
10.07.2019 23:00:00 11,4 8,8 8,2 20,3 23,1 18,4 3 2 4 2 W 1018,0 14 0 0,0
10.07.2019 22:00:00 12,6 8,7 9,3 22,2 23,1 18,4 3 2 5 3 W 1017,8 1,0 0 0,0
10.07.2019 21:00:00 16,8 8,8 13,9 24,8 23,0 18,4 4 2 15 8 WNW 1016,8 9 39 0,0
10.07.2019 20:00:00 20,4 5,9 20,8 27,4 22,8 18,4 8 4 18 10 W 1016,3 47 60 0,0
10.07.2019 19:00:00 21,1 5,2 23,2 29,8 22,5 18,4 11 6 16 9 WNW 1016,3 19 60 0,0
10.07.2019 18:00:00 21,4 4,7 25,3 31,3 22,1 18,4 9 5 23 12 W 1016,4 21 60 0,0
10.07.2019 17:00:00 20,9 3,9 27,2 32,2 21,7 18,4 13 7 22 12 NNW 1016,7 13 60 0,0
10.07.2019 16:00:00 20,7 3,9 27,5 32,0 21,3 18,4 15 8 27 15 WNW 1017,2 8 60 0,0
10.07.2019 15:00:00 20,4 3,8 27,7 30,7 21,0 18,4 13 7 24 13 WNW 1017,6 15 43 0,0
10.07.2019 14:00:00 20,1 4,1 28,9 30,7 20,6 18,4 12 7 22 12 W 1017,7 14 46 0,0
10.07.2019 13:00:00 19,5 2,9 28,2 29,6 20,3 18,4 12 6 22 12 WNW 1018,2 15 51 0,0
10.07.2019 12:00:00 18,4 2,1 27,0 28,1 20,2 18,4 8 4 18 10 W 1018,5 23 60 0,0
10.07.2019 11:00:00 17,4 2,5 22,4 24,6 20,1 18,4 5 3 20 11 E 1018,8 58 52 0,0
10.07.2019 10:00:00 16,9 3,9 23,1 22,1 20,2 18,4 6 4 19 10 N 1019,0 25 60 0,0
10.07.2019 09:00:00 15,1 5,9 20,2 18,7 20,4 18,4 7 4 16 8 N 1019,1 17 60 0,0
10.07.2019 08:00:00 13,3 6,0 16,0 15,8 20,6 18,4 4 2 9 5 NNW 1019,3 33 60 0,0
10.07.2019 07:00:00 10,0 6,8 10,8 14,2 20,8 18,5 4 2 8 5 W 1019,9 36 56 0,0
10.07.2019 06:00:00 7,6 5,9 6,5 13,9 21,0 18,5 2 1 8 4 WNW 1020,2 36 0 0,0
10.07.2019 05:00:00 8,5 6,7 5,8 14,7 21,2 18,5 4 2 6 3 W 1019,7 35 0 0,0
10.07.2019 04:00:00 9,9 7,4 8,7 15,4 21,5 18,5 4 2 7 4 WNW 1019,4 37 0 0,0

tt = Température de l'air
td = dewpoint
tt 5cm = Température de l'air 5cm
tt -5cm = Température de l'air -5cm
tt -20cm = Température de l'air -20cm
tt -100cm = Température de l'air -100cm
ff = Vitesse du vent
fx = gusts
dd = Direction du vent
ppp = reduced air pressure
vv = visibility
sd = Ensoleillement
rr = Quantités de précipitations

stations d'obs. à proximité